This is the latest recevied weather packets stored in our database for station/object W0DXV. If no packets are shown the sender has not sent any weather packets the latest 10 day(s).
| Time | Temp. | Humidity | Pressure | Rain* | Wind** | Luminosity | Snow |
|---|---|---|---|---|---|---|---|
| 1777624185 | 9.44° C | 79% | 1011.2 hPa | 0 mm | - | 0 W/m² | - |
| 1777623881 | 9.44° C | 79% | 1011 hPa | 0 mm | - | 0 W/m² | - |
| 1777623577 | 9.44° C | 81% | 1011.1 hPa | 0 mm | - | 0 W/m² | - |
| 1777623276 | 9.44° C | 80% | 1011.1 hPa | 0 mm | - | 0 W/m² | - |
| 1777622972 | 10° C | 81% | 1011.1 hPa | 0 mm | - | 0 W/m² | - |
| 1777622669 | 10° C | 80% | 1011 hPa | 0 mm | - | 0 W/m² | - |
| 1777622365 | 10° C | 78% | 1011 hPa | 0 mm | - | 0 W/m² | - |
| 1777622062 | 10° C | 74% | 1010.9 hPa | 0 mm | - | 0 W/m² | - |
| 1777621757 | 10° C | 77% | 1011.1 hPa | 0 mm | - | 0 W/m² | - |
| 1777621454 | 10° C | 77% | 1011 hPa | 0 mm | - | 0 W/m² | - |
| 1777621149 | 10° C | 78% | 1011 hPa | 0 mm | - | 0 W/m² | - |
| 1777620846 | 10° C | 77% | 1011 hPa | 0 mm | - | 0 W/m² | - |
| 1777620542 | 10° C | 78% | 1010.9 hPa | 0 mm | - | 0 W/m² | - |
| 1777620239 | 10° C | 78% | 1011 hPa | 0 mm | - | 0 W/m² | - |
| 1777619936 | 10° C | 77% | 1010.9 hPa | 0 mm | - | 0 W/m² | - |
| 1777619636 | 10° C | 76% | 1010.9 hPa | 0 mm | - | 0 W/m² | - |
| 1777619331 | 10° C | 77% | 1011 hPa | 0 mm | - | 0 W/m² | - |
| 1777619026 | 10° C | 79% | 1011 hPa | 0 mm | - | 0 W/m² | - |
| 1777618721 | 10° C | 77% | 1010.8 hPa | 0 mm | - | 0 W/m² | - |
| 1777618417 | 10° C | 76% | 1010.6 hPa | 0 mm | - | 0 W/m² | - |
| 1777618114 | 10° C | 72% | 1010.8 hPa | 0 mm | - | 0 W/m² | - |
| 1777617811 | 10° C | 75% | 1010.9 hPa | 0 mm | - | 0 W/m² | - |
| 1777617510 | 10° C | 73% | 1010.8 hPa | 0 mm | - | 0 W/m² | - |
| 1777617208 | 10° C | 73% | 1010.9 hPa | 0 mm | - | 0 W/m² | - |
| 1777616904 | 10° C | 73% | 1011 hPa | 0 mm | - | 0 W/m² | - |
* Rain latest hour (hover to see other rain measurements)
** Current wind speed in m/s (hover to see current wind gust speed)